Niamtougou International Airport

Jump to: basic info | weather | frequencies | runways | comments

Related pages: nearby airports | nearby navaids | notams | map

Basic information (top)

Codes: LRL DXNG
Location: lon 9.767330, lat 1.091250, elev 1,515 ft / 462 m msl
Status: medium_airport
Scheduled airline service: no
Links: Wikipedia Mobile

Weather (top)

Current conditions (rec'd 2014/08/20 12:00Z):

DXNG 201200Z 17009KT 130V210 9999 SCT007 26/20 Q1016 NOSIG

Airport forecast (rec'd 2014/08/20 12:39Z):

TAF TAF DXNG 201118Z 2012/2112 22008KT 9999 SCT012 
      BECMG 2018/2020 BKN010 
      TEMPO 2021/2108 4500 RA PROB40 2101/2106 TSRA BKN010 FEW016CB 
      BECMG 2109/2111 SCT012

Frequencies (top)

Verify before use: may be inaccurate or out of date.

A/G: 122.6 MHz (A/G VOICE RDO)
AFIS: 658.6 MHz (AFIS)
TWR: 118.3 MHz (TWR)

Runways (top)

03/21: 8,202 x 148 ft (2,500 x 45 m) — paved — lighted

Latest comments (top)

No comments yet for Niamtougou International Airport

More... (top)

See also NOTAMs and nearby airports and navaids, or visit the Niamtougou International Airport page at the main OurAirports website..